Flag for India Weather past 2 weeks in Vasai-Virar, Maharashtra, India

Now
90 °F

Partly cloudy.


Feels Like: 92 °F
Forecast: 73 / 88 °F
Wind: 5 mph from Northwest

Location: Bombay / Santacruz

Current Time: Oct 24, 2014 at 8:30:46 PM

Latest Report: Oct 24, 2014 at 7:40 PM


Visibility: 2 mi

Pressure: 29.83 "Hg

Humidity: 46%

Dew point: 66 °F

Location of Vasai-VirarLocation

Historic Weather in Vasai-Virar — Graph

°F

Vasai-Virar temperature yesterday

Maximum temperature yesterday: 99 °F (at 2:40 PM)
Minimum temperature yesterday: 82 °F (at 5:10 AM)
Average temperature yesterday: 89 °F

Past Weeks' High & Low Weather Summary

 TemperatureHumidityPressure
High99 °F (Oct 11, 1:10 PM)94% (Oct 10, 5:10 AM)29.95 "Hg (Oct 10, 5:10 AM)
Low79 °F (Oct 14, 5:40 AM)27% (Oct 23, 3:10 PM)29.65 "Hg (Oct 11, 4:10 PM)
Average88 °F64%29.81 "Hg
* Reported Oct 9 6:40 PM — Oct 24 7:10 PM, Vasai-Virar, Weather by CustomWeather, © 2014

Note: Actual official high and low records may vary slightly from our data, if they occured in-between our weather recording intervals... More about our weather records

Advertising

Vasai-Virar weather history for previous 24 hours

 ConditionsComfort  
Time TempWeatherWind HumidityBarometerVisibility
7:10 PM
Oct 24
90 °FPartly cloudy.6 mph46%29.83 "Hg2 mi
6:40 PM90 °FPartly cloudy.3 mph49%29.80 "Hg2 mi
6:10 PM90 °FPartly sunny.5 mph49%29.80 "Hg2 mi
5:40 PM90 °FPartly sunny.6 mph49%29.80 "Hg2 mi
4:40 PM90 °FPartly sunny.8 mph52%29.80 "Hg2 mi
4:10 PM90 °FPartly sunny.12 mph52%29.80 "Hg3 mi
3:40 PM91 °FPartly sunny.12 mph44%29.80 "Hg3 mi
3:10 PM91 °FPartly sunny.8 mph38%29.80 "Hg3 mi
2:40 PM95 °FPartly sunny.6 mph30%29.80 "Hg3 mi
1:40 PM95 °FPartly sunny.6 mph34%29.80 "Hg2 mi
1:10 PM93 °FBroken clouds.6 mph36%29.83 "Hg2 mi
12:40 PM93 °FPartly sunny.7 mph36%29.83 "Hg2 mi
12:10 PM91 °FPartly sunny.8 mph38%29.83 "Hg2 mi
11:40 AM91 °FScattered clouds.8 mph38%29.86 "Hg2 mi
10:40 AM90 °FScattered clouds.8 mph49%29.89 "Hg1 mi
10:10 AM88 °FScattered clouds.7 mph55%29.89 "Hg1 mi
9:40 AM86 °FScattered clouds.10 mph55%29.89 "Hg1 mi
9:10 AM84 °FScattered clouds.8 mph58%29.89 "Hg1 mi
8:40 AM84 °FScattered clouds.9 mph58%29.86 "Hg1 mi
8:10 AM82 °FScattered clouds.7 mph62%29.86 "Hg1 mi
7:40 AM82 °FPartly sunny.8 mph66%29.86 "Hg1 mi
7:10 AM82 °FPartly sunny.7 mph70%29.83 "Hg1 mi
6:40 AM82 °FPassing clouds.3 mph66%29.83 "Hg1 mi
6:10 AM82 °FPassing clouds.3 mph62%29.83 "Hg1 mi
5:40 AM82 °FPassing clouds.No wind70%29.80 "Hg1 mi
5:10 AM84 °FPassing clouds.5 mph66%29.80 "Hg1 mi
4:40 AM82 °FPassing clouds.8 mph70%29.80 "Hg1 mi
4:10 AM84 °FPassing clouds.5 mph66%29.80 "Hg1 mi
3:40 AM84 °FPassing clouds.3 mph66%29.80 "Hg1 mi
3:10 AM84 °FPassing clouds.5 mph70%29.80 "Hg1 mi
2:40 AM86 °FPassing clouds.No wind59%29.83 "Hg1 mi
2:10 AM86 °FPassing clouds.3 mph59%29.83 "Hg1 mi
1:10 AM86 °FPassing clouds.No wind62%29.83 "Hg1 mi
12:10 AM86 °FPassing clouds.3 mph62%29.86 "Hg1 mi
11:40 PM
Oct 23
86 °FPassing clouds.No wind62%29.89 "Hg1 mi
11:10 PM88 °FPassing clouds.3 mph62%29.89 "Hg1 mi
10:40 PM86 °FClear.3 mph66%29.89 "Hg1 mi
10:10 PM88 °FHaze.3 mph66%29.89 "Hg1 mi
9:40 PM88 °FClear.5 mph66%29.89 "Hg1 mi
9:10 PM88 °FClear.3 mph66%29.89 "Hg1 mi
8:40 PM88 °FClear.6 mph66%29.89 "Hg1 mi
8:10 PM88 °FPassing clouds.7 mph70%29.89 "Hg1 mi
Weather by CustomWeather, © 2014

See weather overviewHow to use our weather pages